,,,PA_Meas_PMT16A,,PR_Meas_QMR101_102,,RH_Meas_QMH101,,SR_Meas_QMS101,,TA_Meas_QMH101,,GenWind,,GenWind,
date,time,status,PA,status,PR,status,RH,status,SR,status,TA,status,DirAvg,status,SpdAvg,
2014-01-13, 00:00:05,VALID,1011.05,VALID,0,VALID,104,VALID,0,VALID,22.7394,VALID,55,VALID,0,
2014-01-13, 00:01:05,VALID,1011.04,VALID,0,VALID,104,VALID,0,VALID,22.7394,VALID,54,VALID,0,
2014-01-13, 00:02:05,VALID,1011,VALID,0,VALID,104,VALID,0,VALID,22.7783,VALID,55,VALID,0,
2014-01-13, 00:03:05,VALID,1011,VALID,0,VALID,104,VALID,0,VALID,22.7766,VALID,54,VALID,0,
2014-01-13, 00:04:05,VALID,1010.95,VALID,0,VALID,104,VALID,0,VALID,22.8368,VALID,54,VALID,0,
2014-01-13, 00:05:05,VALID,1010.99,VALID,0,VALID,104,VALID,0,VALID,22.8368,VALID,54,VALID,0,
2014-01-13, 00:06:05,VALID,1010.99,VALID,0,VALID,104,VALID,0,VALID,22.8545,VALID,55,VALID,0,
2014-01-13, 00:07:05,VALID,1010.97,VALID,0,VALID,104,VALID,0,VALID,22.8757,VALID,55,VALID,0,
2014-01-13, 00:08:05,VALID,1010.98,VALID,0,VALID,104,VALID,0,VALID,22.8545,VALID,54,VALID,0,
2014-01-13, 00:09:05,VALID,1010.96,VALID,0,VALID,104,VALID,0,VALID,22.8155,VALID,55,VALID,0,
2014-01-13, 00:10:05,VALID,1010.94,VALID,0,VALID,104,VALID,0,VALID,22.8368,VALID,55,VALID,0,
2014-01-13, 00:11:05,VALID,1010.9,VALID,0,VALID,104,VALID,0,VALID,22.8368,VALID,55,VALID,0,
2014-01-13, 00:12:05,VALID,1010.89,VALID,0,VALID,104,VALID,0,VALID,22.8757,VALID,55,VALID,0,
2014-01-13, 00:13:05,VALID,1010.89,VALID,0,VALID,104,VALID,0,VALID,22.8368,VALID,54,VALID,0,
2014-01-13, 00:14:05,VALID,1010.89,VALID,0,VALID,104,VALID,0,VALID,22.8173,VALID,55,VALID,0,
2014-01-13, 00:15:05,VALID,1010.87,VALID,0,VALID,104,VALID,0,VALID,22.7978,VALID,55,VALID,0,
2014-01-13, 00:16:05,VALID,1010.85,VALID,0,VALID,104,VALID,0,VALID,22.7766,VALID,55,VALID,0,
2014-01-13, 00:17:05,VALID,1010.83,VALID,0,VALID,104,VALID,0,VALID,22.7961,VALID,55,VALID,0,
2014-01-13, 00:18:05,VALID,1010.84,VALID,0,VALID,104,VALID,0,VALID,22.7588,VALID,55,VALID,0,
2014-01-13, 00:19:05,VALID,1010.8,VALID,0,VALID,104,VALID,0,VALID,22.7394,VALID,55,VALID,0,
2014-01-13, 00:20:05,VALID,1010.8,VALID,0,VALID,104,VALID,0,VALID,22.7394,VALID,55,VALID,0,
2014-01-13, 00:21:05,VALID,1010.81,VALID,0,VALID,104,VALID,0,VALID,22.7376,VALID,55,VALID,0,
2014-01-13, 00:22:05,VALID,1010.8,VALID,0,VALID,104,VALID,0.112112,VALID,22.7376,VALID,55,VALID,0,
2014-01-13, 00:23:05,VALID,1010.79,VALID,0,VALID,104,VALID,0,VALID,22.7588,VALID,55,VALID,0,
2014-01-13, 00:24:05,VALID,1010.76,VALID,0.5,VALID,104,VALID,0,VALID,22.7394,VALID,55,VALID,0,
2014-01-13, 00:25:05,VALID,1010.76,VALID,0,VALID,104,VALID,0,VALID,22.7588,VALID,55,VALID,0,
2014-01-13, 00:26:05,VALID,1010.74,VALID,0,VALID,104,VALID,0,VALID,22.8173,VALID,55,VALID,0,
2014-01-13, 00:27:05,VALID,1010.76,VALID,0,VALID,104,VALID,0,VALID,22.8757,VALID,55,VALID,0,
2014-01-13, 00:28:05,VALID,1010.76,VALID,0,VALID,104,VALID,0,VALID,22.9147,VALID,55,VALID,0,
2014-01-13, 00:29:05,VALID,1010.76,VALID,0,VALID,104,VALID,0,VALID,22.8952,VALID,55,VALID,0,
2014-01-13, 00:30:05,VALID,1010.75,VALID,0,VALID,104,VALID,0,VALID,22.8545,VALID,55,VALID,0,
2014-01-13, 00:31:05,VALID,1010.73,VALID,0,VALID,104,VALID,0,VALID,22.8173,VALID,55,VALID,0,
2014-01-13, 00:32:05,VALID,1010.7,VALID,0,VALID,104,VALID,0,VALID,22.8545,VALID,55,VALID,0,
2014-01-13, 00:33:05,VALID,1010.72,VALID,0,VALID,104,VALID,0,VALID,22.9129,VALID,55,VALID,0,
2014-01-13, 00:34:05,VALID,1010.71,VALID,0,VALID,104,VALID,0,VALID,22.9342,VALID,55,VALID,0,
2014-01-13, 00:35:05,VALID,1010.74,VALID,0,VALID,104,VALID,0,VALID,22.9342,VALID,55,VALID,0,
2014-01-13, 00:36:05,VALID,1010.74,VALID,0,VALID,104,VALID,0,VALID,22.9147,VALID,55,VALID,0,
2014-01-13, 00:37:05,VALID,1010.73,VALID,0,VALID,104,VALID,0,VALID,22.9147,VALID,55,VALID,0,
2014-01-13, 00:38:05,VALID,1010.75,VALID,0,VALID,104,VALID,0,VALID,22.8952,VALID,55,VALID,0,
2014-01-13, 00:39:05,VALID,1010.73,VALID,0,VALID,104,VALID,0,VALID,22.8757,VALID,55,VALID,0,
2014-01-13, 00:40:05,VALID,1010.71,VALID,0,VALID,104,VALID,0,VALID,22.8155,VALID,55,VALID,0,
2014-01-13, 00:41:05,VALID,1010.7,VALID,0,VALID,104,VALID,0,VALID,22.7978,VALID,55,VALID,0,
2014-01-13, 00:42:05,VALID,1010.67,VALID,0,VALID,104,VALID,0,VALID,22.7978,VALID,55,VALID,0,
2014-01-13, 00:43:05,VALID,1010.66,VALID,0,VALID,104,VALID,0,VALID,22.7978,VALID,55,VALID,0,
2014-01-13, 00:44:05,VALID,1010.64,VALID,0,VALID,104,VALID,0,VALID,22.8173,VALID,55,VALID,0,
2014-01-13, 00:45:05,VALID,1010.6,VALID,0,VALID,104,VALID,0,VALID,22.8368,VALID,55,VALID,0,
2014-01-13, 00:46:05,VALID,1010.58,VALID,0,VALID,104,VALID,0,VALID,22.8562,VALID,55,VALID,0,
2014-01-13, 00:47:05,VALID,1010.57,VALID,0,VALID,104,VALID,0,VALID,22.8757,VALID,55,VALID,0,
2014-01-13, 00:48:05,VALID,1010.58,VALID,0,VALID,104,VALID,0,VALID,22.8368,VALID,55,VALID,0,
2014-01-13, 00:49:05,VALID,1010.58,VALID,0,VALID,104,VALID,0,VALID,22.8173,VALID,55,VALID,0,
2014-01-13, 00:50:05,VALID,1010.57,VALID,0,VALID,104,VALID,0,VALID,22.7978,VALID,55,VALID,0,
2014-01-13, 00:51:05,VALID,1010.56,VALID,0,VALID,104,VALID,0,VALID,22.7783,VALID,55,VALID,0,
2014-01-13, 00:52:05,VALID,1010.55,VALID,0,VALID,104,VALID,0,VALID,22.8173,VALID,55,VALID,0,
2014-01-13, 00:53:05,VALID,1010.54,VALID,0,VALID,104,VALID,0.112112,VALID,22.8562,VALID,55,VALID,0,
2014-01-13, 00:54:05,VALID,1010.55,VALID,0,VALID,104,VALID,0,VALID,22.835,VALID,55,VALID,0,
2014-01-13, 00:55:05,VALID,1010.53,VALID,0,VALID,104,VALID,0,VALID,22.8368,VALID,55,VALID,0,
2014-01-13, 00:56:05,VALID,1010.54,VALID,0,VALID,104,VALID,0,VALID,22.7978,VALID,55,VALID,0,
2014-01-13, 00:57:05,VALID,1010.53,VALID,0,VALID,104,VALID,0,VALID,22.7978,VALID,55,VALID,0,
2014-01-13, 00:58:05,VALID,1010.52,VALID,0,VALID,104,VALID,0,VALID,22.7766,VALID,55,VALID,0,
2014-01-13, 00:59:05,VALID,1010.53,VALID,0,VALID,104,VALID,0,VALID,22.7766,VALID,55,VALID,0,
2014-01-13, 01:00:05,VALID,1010.51,VALID,0,VALID,104,VALID,0,VALID,22.7783,VALID,55,VALID,0,
2014-01-13, 01:01:05,VALID,1010.51,VALID,0,VALID,104,VALID,0,VALID,22.7376,VALID,55,VALID,0,
2014-01-13, 01:02:05,VALID,1010.54,VALID,0,VALID,104,VALID,0,VALID,22.7394,VALID,54,VALID,0,
2014-01-13, 01:03:05,VALID,1010.52,VALID,0,VALID,104,VALID,0,VALID,22.7004,VALID,54,VALID,0,
2014-01-13, 01:04:05,VALID,1010.5,VALID,0,VALID,104,VALID,0,VALID,22.6402,VALID,54,VALID,0,
2014-01-13, 01:05:05,VALID,1010.5,VALID,0,VALID,104,VALID,0,VALID,22.6614,VALID,54,VALID,0,
2014-01-13, 01:06:05,VALID,1010.49,VALID,0,VALID,104,VALID,0,VALID,22.642,VALID,54,VALID,0,
2014-01-13, 01:07:05,VALID,1010.46,VALID,0,VALID,104,VALID,0,VALID,22.6208,VALID,55,VALID,0,
2014-01-13, 01:08:05,VALID,1010.47,VALID,0,VALID,104,VALID,0.112112,VALID,22.6225,VALID,55,VALID,0,
2014-01-13, 01:09:05,VALID,1010.45,VALID,0,VALID,104,VALID,0,VALID,22.5835,VALID,54,VALID,0,
2014-01-13, 01:10:05,VALID,1010.43,VALID,0,VALID,104,VALID,0.112112,VALID,22.5623,VALID,55,VALID,0,
2014-01-13, 01:11:05,VALID,1010.39,VALID,0,VALID,104,VALID,0,VALID,22.564,VALID,55,VALID,0,
2014-01-13, 01:12:05,VALID,1010.36,VALID,0,VALID,104,VALID,0,VALID,22.5429,VALID,55,VALID,0,
2014-01-13, 01:13:05,VALID,1010.37,VALID,0,VALID,104,VALID,0.112112,VALID,22.5234,VALID,55,VALID,0,
2014-01-13, 01:14:05,VALID,1010.34,VALID,0,VALID,104,VALID,0,VALID,22.5056,VALID,55,VALID,0,
2014-01-13, 01:15:05,VALID,1010.32,VALID,0,VALID,104,VALID,0,VALID,22.4861,VALID,55,VALID,0,
2014-01-13, 01:16:05,VALID,1010.3,VALID,0,VALID,104,VALID,0,VALID,22.465,VALID,55,VALID,0,
2014-01-13, 01:17:05,VALID,1010.27,VALID,0,VALID,104,VALID,0,VALID,22.4861,VALID,55,VALID,0,
2014-01-13, 01:18:05,VALID,1010.26,VALID,0,VALID,104,VALID,0,VALID,22.465,VALID,55,VALID,0,
2014-01-13, 01:19:05,VALID,1010.26,VALID,0,VALID,104,VALID,0.112112,VALID,22.465,VALID,55,VALID,0,
2014-01-13, 01:20:05,VALID,1010.22,VALID,0,VALID,104,VALID,0.112112,VALID,22.465,VALID,55,VALID,0,
2014-01-13, 01:21:05,VALID,1010.2,VALID,0,VALID,104,VALID,0,VALID,22.4861,VALID,55,VALID,0,
2014-01-13, 01:22:05,VALID,1010.17,VALID,0,VALID,104,VALID,0.112112,VALID,22.4667,VALID,55,VALID,0,
2014-01-13, 01:23:05,VALID,1010.17,VALID,0,VALID,104,VALID,0.112112,VALID,22.4277,VALID,55,VALID,0,
2014-01-13, 01:24:05,VALID,1010.16,VALID,0,VALID,104,VALID,0.112112,VALID,22.387,VALID,55,VALID,0,
2014-01-13, 01:25:05,VALID,1010.18,VALID,0,VALID,104,VALID,0,VALID,22.387,VALID,55,VALID,0,
2014-01-13, 01:26:05,VALID,1010.14,VALID,0,VALID,104,VALID,0,VALID,22.387,VALID,55,VALID,0,
2014-01-13, 01:27:05,VALID,1010.13,VALID,0,VALID,104,VALID,0.112112,VALID,22.4277,VALID,55,VALID,0,
2014-01-13, 01:28:05,VALID,1010.11,VALID,0,VALID,104,VALID,0,VALID,22.4065,VALID,55,VALID,0,
2014-01-13, 01:29:05,VALID,1010.1,VALID,0,VALID,104,VALID,0.112112,VALID,22.4082,VALID,55,VALID,0,
2014-01-13, 01:30:05,VALID,1010.08,VALID,0,VALID,104,VALID,0.112112,VALID,22.387,VALID,55,VALID,0,
2014-01-13, 01:31:05,VALID,1010.08,VALID,0,VALID,104,VALID,0.112112,VALID,22.3676,VALID,55,VALID,0,
2014-01-13, 01:32:05,VALID,1010.08,VALID,0,VALID,104,VALID,0.112112,VALID,22.3676,VALID,55,VALID,0,
2014-01-13, 01:33:05,VALID,1010.08,VALID,0,VALID,104,VALID,0.112112,VALID,22.3887,VALID,55,VALID,0,
2014-01-13, 01:34:05,VALID,1010.07,VALID,0,VALID,104,VALID,0.112112,VALID,22.3887,VALID,55,VALID,0,
2014-01-13, 01:35:05,VALID,1010.05,VALID,0,VALID,104,VALID,0,VALID,22.3676,VALID,55,VALID,0,
2014-01-13, 01:36:05,VALID,1010.05,VALID,0,VALID,104,VALID,0.112112,VALID,22.3676,VALID,55,VALID,0,
2014-01-13, 01:37:05,VALID,1010.04,VALID,0,VALID,104,VALID,0,VALID,22.4082,VALID,55,VALID,0,
2014-01-13, 01:38:05,VALID,1010.02,VALID,0,VALID,104,VALID,0.112112,VALID,22.4065,VALID,55,VALID,0,
2014-01-13, 01:39:05,VALID,1009.99,VALID,0,VALID,104,VALID,0.112112,VALID,22.4065,VALID,55,VALID,0,
2014-01-13, 01:40:05,VALID,1009.96,VALID,0,VALID,104,VALID,0.112112,VALID,22.387,VALID,55,VALID,0,
2014-01-13, 01:41:05,VALID,1009.97,VALID,0,VALID,104,VALID,0.112112,VALID,22.387,VALID,55,VALID,0,
2014-01-13, 01:42:05,VALID,1009.91,VALID,0,VALID,104,VALID,0,VALID,22.387,VALID,55,VALID,0,
2014-01-13, 01:43:05,VALID,1009.93,VALID,0,VALID,104,VALID,0,VALID,22.3659,VALID,55,VALID,0,
2014-01-13, 01:44:05,VALID,1009.92,VALID,0,VALID,104,VALID,0.112112,VALID,22.3693,VALID,55,VALID,0,
2014-01-13, 01:45:05,VALID,1009.93,VALID,0,VALID,104,VALID,0.112112,VALID,22.4082,VALID,55,VALID,0,
2014-01-13, 01:46:05,VALID,1009.93,VALID,0,VALID,104,VALID,0,VALID,22.4082,VALID,55,VALID,0,
2014-01-13, 01:47:05,VALID,1009.91,VALID,0,VALID,104,VALID,0,VALID,22.4065,VALID,55,VALID,0,
2014-01-13, 01:48:05,VALID,1009.92,VALID,0,VALID,104,VALID,0,VALID,22.4082,VALID,55,VALID,0,
2014-01-13, 01:49:05,VALID,1009.89,VALID,0,VALID,104,VALID,0,VALID,22.3887,VALID,55,VALID,0,
2014-01-13, 01:50:05,VALID,1009.88,VALID,0,VALID,104,VALID,0,VALID,22.3887,VALID,55,VALID,0,
2014-01-13, 01:51:05,VALID,1009.87,VALID,0,VALID,104,VALID,0.112112,VALID,22.3481,VALID,55,VALID,0,
2014-01-13, 01:52:05,VALID,1009.88,VALID,0,VALID,104,VALID,0.112112,VALID,22.3481,VALID,55,VALID,0,
2014-01-13, 01:53:05,VALID,1009.89,VALID,0,VALID,104,VALID,0.112112,VALID,22.3286,VALID,55,VALID,0,
2014-01-13, 01:54:05,VALID,1009.86,VALID,0,VALID,104,VALID,0,VALID,22.3091,VALID,55,VALID,0,
2014-01-13, 01:55:05,VALID,1009.89,VALID,0,VALID,104,VALID,0.112112,VALID,22.3498,VALID,55,VALID,0,
2014-01-13, 01:56:04,VALID,1009.88,VALID,0,VALID,104,VALID,0,VALID,22.3887,VALID,55,VALID,0,
2014-01-13, 01:57:04,VALID,1009.88,VALID,0,VALID,104,VALID,0,VALID,22.4667,VALID,55,VALID,0,
2014-01-13, 01:58:04,VALID,1009.86,VALID,0,VALID,104,VALID,0,VALID,22.5056,VALID,55,VALID,0,
2014-01-13, 01:59:04,VALID,1009.86,VALID,0,VALID,104,VALID,0,VALID,22.5251,VALID,55,VALID,0,
2014-01-13, 02:00:04,VALID,1009.85,VALID,0,VALID,104,VALID,0,VALID,22.564,VALID,55,VALID,0,
2014-01-13, 02:01:04,VALID,1009.82,VALID,0,VALID,104,VALID,0.112112,VALID,22.5446,VALID,55,VALID,0,
2014-01-13, 02:02:04,VALID,1009.81,VALID,0,VALID,104,VALID,0,VALID,22.5251,VALID,55,VALID,0,
2014-01-13, 02:03:04,VALID,1009.84,VALID,0,VALID,104,VALID,0,VALID,22.5446,VALID,55,VALID,0,
2014-01-13, 02:04:04,VALID,1009.78,VALID,0,VALID,104,VALID,0,VALID,22.564,VALID,55,VALID,0,
2014-01-13, 02:05:04,VALID,1009.79,VALID,0,VALID,104,VALID,0,VALID,22.5251,VALID,55,VALID,0,
2014-01-13, 02:06:04,VALID,1009.76,VALID,0,VALID,104,VALID,0,VALID,22.5251,VALID,55,VALID,0,
2014-01-13, 02:07:04,VALID,1009.78,VALID,0,VALID,104,VALID,0,VALID,22.4861,VALID,55,VALID,0,
2014-01-13, 02:08:04,VALID,1009.78,VALID,0,VALID,104,VALID,0.112112,VALID,22.4277,VALID,55,VALID,0,
2014-01-13, 02:09:04,VALID,1009.8,VALID,0,VALID,104,VALID,0,VALID,22.2702,VALID,55,VALID,0,
2014-01-13, 02:10:04,VALID,1009.8,VALID,0,VALID,104,VALID,0.112112,VALID,22.2524,VALID,55,VALID,0,
2014-01-13, 02:11:04,VALID,1009.79,VALID,0,VALID,104,VALID,0,VALID,22.1923,VALID,55,VALID,0,
2014-01-13, 02:12:04,VALID,1009.79,VALID,0,VALID,104,VALID,0,VALID,22.1728,VALID,55,VALID,0,
2014-01-13, 02:13:04,VALID,1009.8,VALID,0,VALID,104,VALID,0,VALID,22.194,VALID,56,VALID,0,
2014-01-13, 02:14:04,VALID,1009.82,VALID,0,VALID,104,VALID,0,VALID,22.2329,VALID,55,VALID,0,
2014-01-13, 02:15:04,VALID,1009.83,VALID,0,VALID,104,VALID,0.112112,VALID,22.2134,VALID,55,VALID,0,
2014-01-13, 02:16:04,VALID,1009.84,VALID,0,VALID,104,VALID,0,VALID,22.2329,VALID,55,VALID,0,
2014-01-13, 02:17:04,VALID,1009.84,VALID,0,VALID,104,VALID,0,VALID,22.2329,VALID,55,VALID,0,
2014-01-13, 02:18:04,VALID,1009.85,VALID,0,VALID,104,VALID,0.112112,VALID,22.2524,VALID,55,VALID,0,
2014-01-13, 02:19:04,VALID,1009.85,VALID,0,VALID,104,VALID,0,VALID,22.2329,VALID,55,VALID,0,
2014-01-13, 02:20:04,VALID,1009.82,VALID,0,VALID,104,VALID,0,VALID,22.194,VALID,55,VALID,0,
2014-01-13, 02:21:04,VALID,1009.83,VALID,0,VALID,104,VALID,0,VALID,22.194,VALID,55,VALID,0,
2014-01-13, 02:22:04,VALID,1009.81,VALID,0,VALID,104,VALID,0,VALID,22.194,VALID,55,VALID,0,
2014-01-13, 02:23:04,VALID,1009.82,VALID,0,VALID,104,VALID,0,VALID,22.1745,VALID,55,VALID,0,
2014-01-13, 02:24:04,VALID,1009.79,VALID,0,VALID,104,VALID,0.112112,VALID,22.1745,VALID,55,VALID,0,
2014-01-13, 02:25:04,VALID,1009.79,VALID,0,VALID,104,VALID,0,VALID,22.1745,VALID,55,VALID,0,
2014-01-13, 02:26:04,VALID,1009.78,VALID,0,VALID,104,VALID,0,VALID,22.1339,VALID,55,VALID,0,
2014-01-13, 02:27:04,VALID,1009.77,VALID,0,VALID,104,VALID,0,VALID,22.1745,VALID,55,VALID,0,
2014-01-13, 02:28:04,VALID,1009.75,VALID,0,VALID,104,VALID,0.112112,VALID,22.2134,VALID,55,VALID,0,
2014-01-13, 02:29:04,VALID,1009.73,VALID,0,VALID,104,VALID,0,VALID,22.2719,VALID,55,VALID,0,
2014-01-13, 02:30:04,VALID,1009.71,VALID,0,VALID,104,VALID,0,VALID,22.3108,VALID,55,VALID,0,
2014-01-13, 02:31:04,VALID,1009.72,VALID,0,VALID,104,VALID,0.112112,VALID,22.3498,VALID,55,VALID,0,
2014-01-13, 02:32:04,VALID,1009.72,VALID,0,VALID,104,VALID,0,VALID,22.2914,VALID,55,VALID,0,
2014-01-13, 02:33:04,VALID,1009.74,VALID,0,VALID,104,VALID,0.112112,VALID,22.2702,VALID,55,VALID,0,
2014-01-13, 02:34:04,VALID,1009.73,VALID,0,VALID,104,VALID,0,VALID,22.2329,VALID,55,VALID,0,
2014-01-13, 02:35:04,VALID,1009.74,VALID,0,VALID,104,VALID,0,VALID,22.1923,VALID,55,VALID,0,
2014-01-13, 02:36:04,VALID,1009.73,VALID,0,VALID,104,VALID,0,VALID,22.194,VALID,55,VALID,0,
2014-01-13, 02:37:04,VALID,1009.72,VALID,0,VALID,104,VALID,0,VALID,22.1144,VALID,55,VALID,0,
2014-01-13, 02:38:04,VALID,1009.72,VALID,0,VALID,104,VALID,0,VALID,22.1355,VALID,55,VALID,0,
2014-01-13, 02:39:04,VALID,1009.72,VALID,0,VALID,104,VALID,0,VALID,22.0966,VALID,55,VALID,0,
2014-01-13, 02:40:04,VALID,1009.76,VALID,0,VALID,104,VALID,0,VALID,22.0966,VALID,55,VALID,0,
2014-01-13, 02:41:04,VALID,1009.71,VALID,0,VALID,104,VALID,0,VALID,22.0966,VALID,55,VALID,0,
2014-01-13, 02:42:04,VALID,1009.71,VALID,0,VALID,104,VALID,0,VALID,22.0966,VALID,55,VALID,0,
2014-01-13, 02:43:04,VALID,1009.75,VALID,0,VALID,104,VALID,0,VALID,22.0771,VALID,55,VALID,0,
2014-01-13, 02:44:04,VALID,1009.75,VALID,0,VALID,104,VALID,0,VALID,22.0576,VALID,55,VALID,0,
2014-01-13, 02:45:04,VALID,1009.74,VALID,0,VALID,104,VALID,0,VALID,22.0187,VALID,55,VALID,0,
2014-01-13, 02:46:04,VALID,1009.76,VALID,0,VALID,104,VALID,0,VALID,22.0382,VALID,55,VALID,0,
2014-01-13, 02:47:04,VALID,1009.76,VALID,0,VALID,104,VALID,0.112112,VALID,22.017,VALID,55,VALID,0,
2014-01-13, 02:48:04,VALID,1009.77,VALID,0,VALID,104,VALID,0.112112,VALID,22.0382,VALID,55,VALID,0,
2014-01-13, 02:49:04,VALID,1009.79,VALID,0,VALID,104,VALID,0,VALID,22.0187,VALID,55,VALID,0,
2014-01-13, 02:50:04,VALID,1009.77,VALID,0,VALID,104,VALID,0,VALID,22.0382,VALID,55,VALID,0,
2014-01-13, 02:51:04,VALID,1009.79,VALID,0,VALID,104,VALID,0,VALID,22.0576,VALID,55,VALID,0,
2014-01-13, 02:52:04,VALID,1009.78,VALID,0,VALID,104,VALID,0,VALID,22.0576,VALID,55,VALID,0,
2014-01-13, 02:53:04,VALID,1009.78,VALID,0,VALID,104,VALID,0,VALID,22.056,VALID,55,VALID,0,
2014-01-13, 02:54:04,VALID,1009.8,VALID,0,VALID,104,VALID,0,VALID,22.0771,VALID,55,VALID,0,
2014-01-13, 02:55:04,VALID,1009.77,VALID,0,VALID,104,VALID,0.112112,VALID,22.0966,VALID,55,VALID,0,
2014-01-13, 02:56:04,VALID,1009.8,VALID,0,VALID,104,VALID,0,VALID,22.1355,VALID,55,VALID,0,
2014-01-13, 02:57:04,VALID,1009.79,VALID,0,VALID,104,VALID,0,VALID,22.0949,VALID,54,VALID,0,
2014-01-13, 02:58:04,VALID,1009.83,VALID,0,VALID,104,VALID,0,VALID,22.1161,VALID,55,VALID,0,
2014-01-13, 02:59:04,VALID,1009.8,VALID,0,VALID,104,VALID,0.112112,VALID,22.0754,VALID,54,VALID,0,
2014-01-13, 03:00:04,VALID,1009.79,VALID,0,VALID,104,VALID,0,VALID,22.0576,VALID,55,VALID,0,
2014-01-13, 03:01:04,VALID,1009.81,VALID,0,VALID,104,VALID,0,VALID,22.0365,VALID,55,VALID,0,
2014-01-13, 03:02:04,VALID,1009.79,VALID,0,VALID,104,VALID,0,VALID,22.0365,VALID,55,VALID,0,
2014-01-13, 03:03:04,VALID,1009.78,VALID,0,VALID,104,VALID,0,VALID,22.0576,VALID,55,VALID,0,
2014-01-13, 03:04:04,VALID,1009.76,VALID,0,VALID,104,VALID,0,VALID,22.0771,VALID,55,VALID,0,
2014-01-13, 03:05:04,VALID,1009.77,VALID,0,VALID,104,VALID,0,VALID,22.0576,VALID,55,VALID,0,
2014-01-13, 03:06:04,VALID,1009.76,VALID,0,VALID,104,VALID,0,VALID,22.0382,VALID,55,VALID,0,
2014-01-13, 03:07:04,VALID,1009.72,VALID,0,VALID,104,VALID,0,VALID,22.0382,VALID,54,VALID,0,
2014-01-13, 03:08:04,VALID,1009.72,VALID,0,VALID,104,VALID,0.112112,VALID,22.017,VALID,54,VALID,0,
2014-01-13, 03:09:04,VALID,1009.71,VALID,0,VALID,104,VALID,0,VALID,22.0382,VALID,55,VALID,0,
2014-01-13, 03:10:04,VALID,1009.68,VALID,0,VALID,104,VALID,0,VALID,22.0187,VALID,55,VALID,0,
2014-01-13, 03:11:04,VALID,1009.65,VALID,0,VALID,104,VALID,0,VALID,22.0365,VALID,55,VALID,0,
2014-01-13, 03:12:04,VALID,1009.64,VALID,0,VALID,104,VALID,0,VALID,22.0576,VALID,54,VALID,0,
2014-01-13, 03:13:04,VALID,1009.63,VALID,0,VALID,104,VALID,0,VALID,22.0382,VALID,55,VALID,0,
2014-01-13, 03:14:04,VALID,1009.62,VALID,0,VALID,104,VALID,0,VALID,22.0576,VALID,55,VALID,0,
2014-01-13, 03:15:04,VALID,1009.6,VALID,0,VALID,104,VALID,0.112112,VALID,22.0771,VALID,55,VALID,0,
2014-01-13, 03:16:04,VALID,1009.61,VALID,0,VALID,104,VALID,0,VALID,22.056,VALID,55,VALID,0,
2014-01-13, 03:17:04,VALID,1009.59,VALID,0,VALID,104,VALID,0,VALID,22.0966,VALID,54,VALID,0,
2014-01-13, 03:18:04,VALID,1009.58,VALID,0,VALID,104,VALID,0,VALID,22.0754,VALID,55,VALID,0,
2014-01-13, 03:19:04,VALID,1009.54,VALID,0,VALID,104,VALID,0.112112,VALID,22.0966,VALID,55,VALID,0,
2014-01-13, 03:20:04,VALID,1009.54,VALID,0,VALID,104,VALID,0,VALID,22.0576,VALID,55,VALID,0,
2014-01-13, 03:21:04,VALID,1009.54,VALID,0,VALID,104,VALID,0,VALID,22.0365,VALID,55,VALID,0,
2014-01-13, 03:22:04,VALID,1009.55,VALID,0,VALID,104,VALID,0,VALID,22.0771,VALID,55,VALID,0,
2014-01-13, 03:23:04,VALID,1009.55,VALID,0,VALID,104,VALID,0,VALID,22.0771,VALID,55,VALID,0,
2014-01-13, 03:24:04,VALID,1009.57,VALID,0,VALID,104,VALID,0,VALID,22.0966,VALID,55,VALID,0,
2014-01-13, 03:25:04,VALID,1009.56,VALID,0,VALID,104,VALID,0,VALID,22.0966,VALID,55,VALID,0,
2014-01-13, 03:26:04,VALID,1009.57,VALID,0,VALID,104,VALID,0,VALID,22.0754,VALID,55,VALID,0,
2014-01-13, 03:27:04,VALID,1009.56,VALID,0,VALID,104,VALID,0,VALID,22.1372,VALID,55,VALID,0,
2014-01-13, 03:28:04,VALID,1009.59,VALID,0,VALID,104,VALID,0.112112,VALID,22.1161,VALID,55,VALID,0,
2014-01-13, 03:29:04,VALID,1009.58,VALID,0,VALID,104,VALID,0,VALID,22.1161,VALID,55,VALID,0,
2014-01-13, 03:30:04,VALID,1009.57,VALID,0,VALID,104,VALID,0,VALID,22.0949,VALID,55,VALID,0,
2014-01-13, 03:31:04,VALID,1009.58,VALID,0,VALID,104,VALID,0,VALID,22.0966,VALID,55,VALID,0,
2014-01-13, 03:32:04,VALID,1009.56,VALID,0,VALID,104,VALID,0,VALID,22.0966,VALID,55,VALID,0,
2014-01-13, 03:33:04,VALID,1009.53,VALID,0,VALID,104,VALID,0,VALID,22.0754,VALID,55,VALID,0,
2014-01-13, 03:34:04,VALID,1009.55,VALID,0,VALID,104,VALID,0,VALID,22.0966,VALID,55,VALID,0,
2014-01-13, 03:35:04,VALID,1009.55,VALID,0,VALID,104,VALID,0.112112,VALID,22.0754,VALID,55,VALID,0,
2014-01-13, 03:36:04,VALID,1009.51,VALID,0,VALID,104,VALID,0,VALID,22.0966,VALID,55,VALID,0,
2014-01-13, 03:37:04,VALID,1009.5,VALID,0,VALID,104,VALID,0,VALID,22.0771,VALID,55,VALID,0,
2014-01-13, 03:38:04,VALID,1009.52,VALID,0,VALID,104,VALID,0,VALID,22.0771,VALID,55,VALID,0,
2014-01-13, 03:39:04,VALID,1009.51,VALID,0,VALID,104,VALID,0.112112,VALID,22.056,VALID,55,VALID,0,
2014-01-13, 03:40:04,VALID,1009.49,VALID,0,VALID,104,VALID,0,VALID,22.0576,VALID,55,VALID,0,
2014-01-13, 03:41:04,VALID,1009.5,VALID,0,VALID,104,VALID,0.112112,VALID,22.0382,VALID,55,VALID,0,
2014-01-13, 03:42:04,VALID,1009.48,VALID,0,VALID,104,VALID,0,VALID,22.0382,VALID,55,VALID,0,
2014-01-13, 03:43:04,VALID,1009.48,VALID,0,VALID,104,VALID,0,VALID,22.0187,VALID,55,VALID,0,
2014-01-13, 03:44:04,VALID,1009.49,VALID,0,VALID,104,VALID,0,VALID,22.0187,VALID,55,VALID,0,
2014-01-13, 03:45:04,VALID,1009.53,VALID,0,VALID,104,VALID,0,VALID,21.9975,VALID,55,VALID,0,
2014-01-13, 03:46:04,VALID,1009.49,VALID,0,VALID,104,VALID,0.112112,VALID,21.9992,VALID,55,VALID,0,
2014-01-13, 03:47:04,VALID,1009.52,VALID,0,VALID,104,VALID,0,VALID,21.9586,VALID,55,VALID,0,
2014-01-13, 03:48:04,VALID,1009.51,VALID,0,VALID,104,VALID,0,VALID,21.9603,VALID,55,VALID,0,
2014-01-13, 03:49:04,VALID,1009.51,VALID,0,VALID,104,VALID,0.112112,VALID,21.9586,VALID,55,VALID,0,
2014-01-13, 03:50:04,VALID,1009.52,VALID,0,VALID,104,VALID,0,VALID,21.9391,VALID,55,VALID,0,
2014-01-13, 03:51:04,VALID,1009.49,VALID,0,VALID,104,VALID,0.112112,VALID,21.9586,VALID,55,VALID,0,
2014-01-13, 03:52:04,VALID,1009.46,VALID,0,VALID,104,VALID,0.112112,VALID,21.9586,VALID,55,VALID,0,
2014-01-13, 03:53:04,VALID,1009.5,VALID,0,VALID,104,VALID,0,VALID,21.9781,VALID,55,VALID,0,
2014-01-13, 03:54:04,VALID,1009.47,VALID,0,VALID,104,VALID,0,VALID,22.017,VALID,55,VALID,0,
2014-01-13, 03:55:04,VALID,1009.46,VALID,0,VALID,104,VALID,0,VALID,22.0187,VALID,55,VALID,0,
2014-01-13, 03:56:04,VALID,1009.46,VALID,0,VALID,104,VALID,0,VALID,22.0382,VALID,55,VALID,0,
2014-01-13, 03:57:04,VALID,1009.47,VALID,0,VALID,104,VALID,0.112112,VALID,22.0365,VALID,55,VALID,0,
2014-01-13, 03:58:04,VALID,1009.47,VALID,0,VALID,104,VALID,0,VALID,22.0382,VALID,55,VALID,0,
2014-01-13, 03:59:04,VALID,1009.5,VALID,0,VALID,104,VALID,0.112112,VALID,22.0187,VALID,55,VALID,0,
2014-01-13, 04:00:04,VALID,1009.48,VALID,0,VALID,104,VALID,0,VALID,22.0576,VALID,55,VALID,0,
2014-01-13, 04:01:04,VALID,1009.5,VALID,0,VALID,104,VALID,0.112112,VALID,22.0382,VALID,55,VALID,0,
2014-01-13, 04:02:04,VALID,1009.48,VALID,0,VALID,104,VALID,0,VALID,21.9975,VALID,55,VALID,0,
2014-01-13, 04:03:04,VALID,1009.49,VALID,0,VALID,104,VALID,0.112112,VALID,22.0382,VALID,55,VALID,0,
2014-01-13, 04:04:04,VALID,1009.52,VALID,0,VALID,104,VALID,0,VALID,22.017,VALID,55,VALID,0,
2014-01-13, 04:05:04,VALID,1009.51,VALID,0,VALID,104,VALID,0.112112,VALID,22.017,VALID,55,VALID,0,
2014-01-13, 04:06:04,VALID,1009.52,VALID,0,VALID,104,VALID,0,VALID,22.0382,VALID,55,VALID,0,
2014-01-13, 04:07:04,VALID,1009.53,VALID,0,VALID,104,VALID,0,VALID,22.017,VALID,55,VALID,0,
2014-01-13, 04:08:04,VALID,1009.54,VALID,0,VALID,104,VALID,0,VALID,22.017,VALID,55,VALID,0,